Flag for United Kingdom Weather past 2 weeks in Whitstable, England, United Kingdom

Now
69 °F

Mild.


Feels Like: 69 °F
Forecast: 64 / 74 °F
Wind: 15 mph from Southeast

Location: Manston

Current Time: Aug 2, 2015 at 4:23:03 PM

Latest Report: Aug 2, 2015 at 3:00 PM


Visibility: 25 mi

Pressure: 30.06 "Hg

Humidity: 47%

Dew point: 48 °F

Location of WhitstableLocation

Historic Weather in Whitstable — Graph

°F

Whitstable temperature yesterday

Maximum temperature yesterday: 71 °F (at 4:00 PM)
Minimum temperature yesterday: 51 °F (at 5:00 AM)
Average temperature yesterday: 61 °F

Past Weeks' High & Low Weather Summary

 TemperatureHumidityPressure
High75 °F (Jul 21, 1:00 PM)94% (Jul 20, 11:00 AM)30.15 "Hg (Jul 20, 11:00 AM)
Low48 °F (Jul 31, 4:00 AM)41% (Jul 18, 6:00 PM)29.44 "Hg (Jul 26, 11:00 PM)
Average61 °F72%29.89 "Hg
* Reported Jul 18 3:00 PM — Aug 2 3:00 PM, Whitstable, Weather by CustomWeather, © 2015

Note: Actual official high and low records may vary slightly from our data, if they occured in-between our weather recording intervals... More about our weather records

Advertising

Whitstable weather history for previous 24 hours

 ConditionsComfort  
Time TempWeatherWind HumidityBarometerVisibility
3:00 PM
Sun, Aug 2
69 °FMild.15 mph47%30.06 "Hg25 mi
2:00 PM68 °FMild.15 mph53%30.07 "Hg28 mi
1:00 PM68 °FMild.16 mph63%30.08 "Hg31 mi
12:00 PM68 °FMild.13 mph67%30.09 "Hg17 mi
11:00 AM68 °FMild.6 mph62%30.11 "Hg14 mi
10:00 AM66 °FMild.6 mph65%30.11 "Hg14 mi
9:00 AM64 °FMild.6 mph73%30.11 "Hg22 mi
8:00 AM59 °FCool.6 mph82%30.11 "Hg25 mi
7:00 AM54 °FCool.6 mph90%30.10 "Hg9 mi
6:00 AM53 °FCool.6 mph91%30.09 "Hg9 mi
5:00 AM53 °FCool.7 mph91%30.09 "Hg12 mi
3:00 AM54 °FCool.6 mph88%30.08 "Hg17 mi
2:00 AM55 °FCool.7 mph84%30.08 "Hg22 mi
11:00 PM
Sat, Aug 1
57 °FCool.9 mph69%30.07 "Hg28 mi
9:00 PM61 °FRefreshingly cool.8 mph60%30.04 "Hg28 mi
8:00 PM65 °FMild.10 mph53%30.02 "Hg19 mi
6:00 PM71 °FMild.12 mph45%30.01 "Hg25 mi
5:00 PM70 °FMild.15 mph44%30.01 "Hg22 mi
4:00 PM71 °FMild.13 mph43%30.01 "Hg22 mi
Weather by CustomWeather, © 2015

See weather overviewHow to use our weather pages